Location: Unspecified
(0.0000°N, 0.0000°E)
Time: 16:01:53
(UTC+00:00)

OBJECT C - Pass Details

Date: 14 September 2024
Orbit: 557 x 585 km, 62.0° (Epoch: 11 October)

Event Time Altitude Azimuth Distance (km) Brightness Sun altitude
Rises 18:32:55 0° 169° (SSE) 2,734 ? -9.4°
Reaches altitude 10° 18:36:45 10° 133° (SE) 1,836 ? -10.3°
Enters shadow 18:37:31 11° 122° (ESE) 1,776 ? -10.5°
